Location: ??????????
(31.2156°N, 29.9553°E)
Time: 04:07:17
(UTC+00:00)

CZ-3A R/B - Pass Details

Date: 03 March 2021
Orbit: 341 x 36834 km, 25.0° (Epoch: 14 April)

Event Time Altitude Azimuth Distance (km) Brightness Sun altitude
Rises 17:41:50 0° 261° (W) 12,325 10.0 -22.6°
Reaches altitude 10° 17:56:25 10° 258° (WSW) 6,877 8.3 -25.6°
Maximum altitude 18:09:40 47° 189° (S) 1,193 3.4 -28.4°
Enters shadow 18:09:45 47° 185° (S) 1,176 3.3 -28.5°
